TimeAKDT,TemperatureF,Dew PointF,Humidity,Sea Level PressureIn,VisibilityMPH,Wind Direction,Wind SpeedMPH,Gust SpeedMPH,PrecipitationIn,Events,Conditions,WindDirDegrees,DateUTC
12:16 AM,48.2,37.4,66,30.04,10.0,Calm,Calm,-,N/A,,Mostly Cloudy,0,2013-06-03 08:16:00
12:36 AM,48.2,35.6,62,30.04,10.0,SE,4.6,-,N/A,,Overcast,140,2013-06-03 08:36:00
12:56 AM,48.2,35.6,62,30.04,10.0,East,6.9,-,N/A,,Overcast,90,2013-06-03 08:56:00
1:16 AM,46.4,37.4,71,30.04,10.0,East,6.9,-,N/A,,Mostly Cloudy,90,2013-06-03 09:16:00
1:36 AM,46.4,37.4,71,30.04,10.0,East,4.6,-,N/A,,Overcast,80,2013-06-03 09:36:00
1:56 AM,46.4,35.6,66,30.03,10.0,East,3.5,-,N/A,,Overcast,100,2013-06-03 09:56:00
2:16 AM,46.4,35.6,66,30.03,10.0,East,5.8,-,N/A,,Overcast,100,2013-06-03 10:16:00
2:36 AM,44.6,37.4,76,30.03,10.0,ESE,5.8,-,N/A,,Overcast,110,2013-06-03 10:36:00
2:56 AM,44.6,37.4,76,30.02,10.0,East,5.8,-,N/A,,Overcast,100,2013-06-03 10:56:00
3:16 AM,44.6,37.4,76,30.02,10.0,East,4.6,-,N/A,,Overcast,80,2013-06-03 11:16:00
3:36 AM,44.6,37.4,76,30.01,10.0,East,3.5,-,N/A,,Overcast,100,2013-06-03 11:36:00
3:56 AM,44.6,35.6,71,30.00,10.0,Calm,Calm,-,N/A,,Overcast,0,2013-06-03 11:56:00
4:16 AM,44.6,37.4,76,30.00,10.0,Calm,Calm,-,N/A,,Overcast,0,2013-06-03 12:16:00
4:36 AM,46.4,37.4,71,29.99,10.0,ENE,4.6,-,N/A,,Overcast,70,2013-06-03 12:36:00
4:56 AM,46.4,37.4,71,29.98,10.0,ENE,5.8,-,N/A,,Overcast,70,2013-06-03 12:56:00
5:16 AM,46.4,35.6,66,29.97,10.0,ENE,4.6,-,N/A,,Overcast,70,2013-06-03 13:16:00
5:36 AM,46.4,35.6,66,29.97,10.0,ENE,6.9,-,N/A,,Overcast,60,2013-06-03 13:36:00
5:56 AM,46.4,35.6,66,29.96,10.0,ENE,5.8,-,N/A,,Overcast,60,2013-06-03 13:56:00
6:16 AM,46.4,35.6,66,29.96,10.0,ENE,4.6,-,N/A,,Overcast,60,2013-06-03 14:16:00
6:36 AM,46.4,35.6,66,29.96,10.0,ENE,4.6,-,N/A,,Overcast,60,2013-06-03 14:36:00
6:56 AM,46.4,35.6,66,29.95,10.0,NNE,3.5,-,N/A,,Overcast,30,2013-06-03 14:56:00
7:16 AM,46.4,37.4,71,29.95,10.0,Calm,Calm,-,N/A,,Overcast,0,2013-06-03 15:16:00
7:36 AM,46.4,37.4,71,29.95,10.0,NE,4.6,-,N/A,,Overcast,40,2013-06-03 15:36:00
7:56 AM,48.2,37.4,66,29.94,10.0,NNE,3.5,-,N/A,,Overcast,30,2013-06-03 15:56:00
8:16 AM,48.2,37.4,66,29.94,10.0,NE,5.8,-,N/A,,Overcast,50,2013-06-03 16:16:00
8:36 AM,50.0,37.4,62,29.93,10.0,ENE,9.2,-,N/A,,Overcast,60,2013-06-03 16:36:00
8:56 AM,50.0,37.4,62,29.93,10.0,ENE,6.9,-,N/A,,Overcast,60,2013-06-03 16:56:00
9:16 AM,50.0,35.6,58,29.92,10.0,ENE,9.2,-,N/A,,Overcast,60,2013-06-03 17:16:00
9:36 AM,51.8,37.4,58,29.92,10.0,ENE,4.6,-,N/A,,Overcast,60,2013-06-03 17:36:00
9:56 AM,51.8,35.6,54,29.91,10.0,ENE,8.1,-,N/A,,Overcast,70,2013-06-03 17:56:00
10:16 AM,51.8,35.6,54,29.90,10.0,East,9.2,-,N/A,,Overcast,90,2013-06-03 18:16:00
10:36 AM,51.8,35.6,54,29.90,10.0,NE,9.2,-,N/A,,Overcast,50,2013-06-03 18:36:00
10:56 AM,51.8,35.6,54,29.90,10.0,ENE,10.4,-,N/A,,Overcast,70,2013-06-03 18:56:00
11:16 AM,53.6,35.6,51,29.89,10.0,East,8.1,-,N/A,,Overcast,90,2013-06-03 19:16:00
11:36 AM,53.6,35.6,51,29.88,10.0,NE,9.2,-,N/A,,Overcast,50,2013-06-03 19:36:00
11:56 AM,53.6,35.6,51,29.87,10.0,ENE,9.2,-,N/A,,Overcast,60,2013-06-03 19:56:00
12:16 PM,53.6,35.6,51,29.87,10.0,ENE,8.1,-,N/A,,Overcast,60,2013-06-03 20:16:00
12:36 PM,53.6,35.6,51,29.87,10.0,East,11.5,-,N/A,,Overcast,100,2013-06-03 20:36:00
12:56 PM,53.6,35.6,51,29.87,10.0,East,9.2,16.1,N/A,,Overcast,100,2013-06-03 20:56:00
1:16 PM,53.6,35.6,51,29.86,10.0,East,11.5,-,N/A,,Overcast,100,2013-06-03 21:16:00
1:36 PM,53.6,35.6,51,29.86,10.0,NE,8.1,-,N/A,,Overcast,50,2013-06-03 21:36:00
1:56 PM,53.6,37.4,54,29.86,10.0,NE,9.2,-,N/A,,Overcast,50,2013-06-03 21:56:00
2:16 PM,53.6,37.4,54,29.85,10.0,NE,12.7,-,N/A,,Overcast,50,2013-06-03 22:16:00
2:36 PM,55.4,35.6,47,29.84,10.0,NE,8.1,-,N/A,,Overcast,50,2013-06-03 22:36:00
2:56 PM,55.4,37.4,51,29.83,10.0,NNE,9.2,-,N/A,,Overcast,30,2013-06-03 22:56:00
3:16 PM,55.4,37.4,51,29.83,10.0,ENE,8.1,-,N/A,,Mostly Cloudy,70,2013-06-03 23:16:00
3:36 PM,55.4,37.4,51,29.82,10.0,ENE,3.5,-,N/A,,Overcast,70,2013-06-03 23:36:00
3:56 PM,55.4,37.4,51,29.82,10.0,East,9.2,-,N/A,,Overcast,80,2013-06-03 23:56:00
4:16 PM,55.4,37.4,51,29.81,10.0,East,10.4,-,N/A,,Overcast,90,2013-06-04 00:16:00
4:36 PM,55.4,37.4,51,29.81,10.0,NE,9.2,16.1,N/A,,Overcast,50,2013-06-04 00:36:00
4:56 PM,55.4,37.4,51,29.80,10.0,NE,10.4,-,N/A,,Overcast,50,2013-06-04 00:56:00
5:16 PM,55.4,37.4,51,29.79,10.0,ENE,9.2,-,N/A,,Mostly Cloudy,70,2013-06-04 01:16:00
5:36 PM,57.2,37.4,48,29.79,10.0,NE,11.5,16.1,N/A,,Overcast,50,2013-06-04 01:36:00
5:56 PM,57.2,37.4,48,29.78,10.0,ENE,6.9,-,N/A,,Overcast,60,2013-06-04 01:56:00
6:16 PM,57.2,35.6,44,29.77,10.0,ESE,11.5,-,N/A,,Overcast,110,2013-06-04 02:16:00
6:36 PM,57.2,33.8,41,29.77,10.0,East,11.5,-,N/A,,Overcast,80,2013-06-04 02:36:00
6:56 PM,57.2,35.6,44,29.76,10.0,East,13.8,-,N/A,,Overcast,100,2013-06-04 02:56:00
7:16 PM,55.4,35.6,47,29.76,10.0,East,11.5,-,N/A,,Overcast,90,2013-06-04 03:16:00
7:56 PM,55.4,35.6,47,29.75,10.0,East,12.7,-,N/A,,Overcast,80,2013-06-04 03:56:00
8:16 PM,55.4,35.6,47,29.75,10.0,ESE,12.7,-,N/A,,Overcast,110,2013-06-04 04:16:00
8:36 PM,55.4,35.6,47,29.75,10.0,East,12.7,-,N/A,,Mostly Cloudy,90,2013-06-04 04:36:00
8:56 PM,53.6,35.6,51,29.75,10.0,East,9.2,-,N/A,,Overcast,100,2013-06-04 04:56:00
9:16 PM,53.6,35.6,51,29.74,10.0,East,10.4,-,N/A,,Overcast,100,2013-06-04 05:16:00
9:36 PM,53.6,35.6,51,29.74,10.0,East,9.2,-,N/A,,Overcast,90,2013-06-04 05:36:00
9:56 PM,53.6,35.6,51,29.74,10.0,East,6.9,-,N/A,,Overcast,100,2013-06-04 05:56:00
10:16 PM,51.8,35.6,54,29.74,10.0,East,6.9,-,N/A,,Overcast,100,2013-06-04 06:16:00
10:36 PM,51.8,35.6,54,29.74,10.0,East,8.1,-,N/A,,Overcast,100,2013-06-04 06:36:00
10:56 PM,51.8,35.6,54,29.73,10.0,East,6.9,-,N/A,,Overcast,100,2013-06-04 06:56:00
11:16 PM,51.8,35.6,54,29.73,10.0,East,6.9,-,N/A,,Overcast,100,2013-06-04 07:16:00
11:36 PM,50.0,35.6,58,29.73,10.0,East,5.8,-,N/A,,Overcast,90,2013-06-04 07:36:00
11:56 PM,50.0,35.6,58,29.72,10.0,East,5.8,-,N/A,,Overcast,100,2013-06-04 07:56:00